Total_Precipitation_Accumulation
0.62 0.45 0.35 0.35 0.35 0.33 0.37 0.47 0.84 1.25 1.65 1.95 2.16 2.20 2.10 1.82 1.56 1.56 1.66 1.69 1.61 1.47 1.34 1.17 1.07 1.05 1.02 0.99 0.93 0.91 0.97 1.09 1.18 1.12 1.08 1.14 1.18 1.06 0.94 0.89 0.82 0.82 0.76 0.71
0.52 0.42 0.40 0.49 0.48 0.52 0.55 0.61 0.80 1.18 1.72 1.90 1.87 1.66 1.68 1.66 1.51 1.62 1.80 1.89 1.84 1.67 1.49 1.28 1.13 1.06 1.04 1.00 0.88 0.83 0.89 1.05 1.11 1.10 1.08 1.10 1.14 1.09 1.01 0.93 0.90 0.85 0.79 0.74
0.71 0.52 0.66 1.05 0.84 0.79 0.82 0.83 0.95 1.31 1.48 1.38 1.42 1.42 1.48 1.53 1.57 1.77 1.93 1.95 1.86 1.74 1.56 1.37 1.28 1.16 1.14 1.07 0.93 0.92 0.94 0.96 1.04 1.08 1.12 1.14 1.11 1.07 1.04 1.02 1.02 0.91 0.81 0.78
0.71 0.84 1.41 1.34 0.84 0.79 0.83 0.88 0.84 0.91 0.93 1.02 1.13 1.27 1.46 1.55 1.68 1.89 2.02 2.11 2.02 1.78 1.61 1.39 1.23 1.15 1.09 1.03 0.96 1.01 0.98 0.94 0.95 0.95 0.97 0.96 1.02 1.07 1.05 1.02 0.96 0.90 0.82 0.78
0.93 1.22 1.45 1.25 0.81 0.77 0.94 1.10 0.83 0.76 0.73 0.83 0.92 1.11 1.57 1.69 1.75 1.90 2.00 1.98 1.92 1.74 1.61 1.47 1.29 1.19 1.10 1.04 1.01 0.98 0.92 0.88 0.83 0.78 0.80 0.82 0.89 1.00 1.07 1.03 0.93 0.84 0.77 0.74
1.05 1.47 1.90 1.59 0.74 0.48 0.77 1.43 0.96 0.68 0.60 0.70 0.93 1.30 1.52 1.48 1.51 1.54 1.55 1.48 1.46 1.40 1.36 1.30 1.18 1.12 1.09 1.06 0.99 0.90 0.82 0.76 0.69 0.70 0.73 0.74 0.81 0.92 0.98 1.00 0.89 0.74 0.66 0.67
1.12 1.50 1.73 0.92 0.50 0.53 1.28 1.63 1.12 0.91 0.77 0.80 1.04 1.16 1.05 1.02 1.16 1.24 1.28 1.24 1.17 1.15 1.18 1.16 1.06 1.05 1.07 1.02 0.93 0.77 0.66 0.64 0.64 0.69 0.74 0.72 0.82 0.90 0.88 0.83 0.82 0.73 0.67 0.66
1.27 1.68 1.78 0.72 0.54 0.98 1.19 0.89 0.85 0.88 0.86 0.86 0.85 0.76 0.74 0.82 1.00 1.20 1.35 1.29 1.18 1.12 1.08 1.00 0.96 1.04 1.06 0.97 0.79 0.65 0.62 0.65 0.69 0.69 0.66 0.65 0.80 0.88 0.80 0.77 0.76 0.73 0.71 0.66
1.31 1.51 1.12 0.61 0.61 0.64 0.63 0.61 0.62 0.64 0.65 0.69 0.76 0.75 0.73 0.82 0.95 1.12 1.21 1.22 1.16 1.06 0.97 0.86 0.82 0.89 0.91 0.78 0.59 0.55 0.60 0.68 0.70 0.65 0.73 0.74 0.73 0.74 0.74 0.75 0.66 0.59 0.60 0.57
1.04 1.03 0.75 0.58 0.50 0.46 0.47 0.49 0.52 0.59 0.61 0.68 0.84 0.87 0.83 0.87 0.98 1.11 1.13 1.02 0.94 0.89 0.83 0.74 0.67 0.65 0.63 0.53 0.50 0.56 0.65 0.68 0.65 0.68 0.79 0.79 0.70 0.60 0.58 0.57 0.53 0.50 0.51 0.49
1.29 1.15 0.89 0.63 0.51 0.50 0.47 0.51 0.57 0.66 0.67 0.71 0.77 0.82 0.85 0.86 0.88 0.91 0.91 0.84 0.76 0.72 0.68 0.58 0.54 0.50 0.43 0.41 0.45 0.56 0.60 0.64 0.64 0.65 0.70 0.75 0.67 0.51 0.46 0.41 0.34 0.34 0.37 0.38
1.60 1.27 1.14 0.87 0.66 0.66 0.64 0.64 0.65 0.63 0.60 0.62 0.61 0.62 0.67 0.70 0.71 0.72 0.74 0.72 0.69 0.63 0.58 0.51 0.48 0.45 0.42 0.38 0.41 0.53 0.57 0.55 0.51 0.54 0.57 0.59 0.59 0.50 0.34 0.21 0.16 0.14 0.16 0.20
1.25 1.01 0.91 0.84 0.75 0.74 0.68 0.54 0.48 0.47 0.43 0.47 0.51 0.50 0.50 0.50 0.52 0.55 0.59 0.58 0.56 0.51 0.46 0.47 0.45 0.41 0.40 0.37 0.37 0.43 0.53 0.53 0.44 0.42 0.47 0.49 0.47 0.53 0.48 0.29 0.14 0.11 0.10 0.13
0.84 0.80 0.78 0.62 0.48 0.40 0.33 0.30 0.30 0.32 0.31 0.31 0.34 0.36 0.37 0.36 0.40 0.43 0.50 0.49 0.43 0.39 0.37 0.39 0.40 0.36 0.33 0.33 0.36 0.39 0.40 0.37 0.38 0.43 0.43 0.40 0.38 0.38 0.41 0.47 0.42 0.31 0.19 0.16
0.53 0.54 0.47 0.33 0.24 0.22 0.21 0.21 0.27 0.29 0.28 0.29 0.27 0.28 0.28 0.31 0.35 0.36 0.41 0.40 0.36 0.34 0.33 0.34 0.35 0.34 0.29 0.29 0.32 0.37 0.37 0.35 0.36 0.38 0.36 0.32 0.28 0.28 0.31 0.37 0.40 0.39 0.34 0.27
0.33 0.31 0.28 0.24 0.22 0.20 0.21 0.22 0.26 0.26 0.25 0.26 0.27 0.26 0.25 0.25 0.25 0.30 0.37 0.37 0.37 0.38 0.38 0.36 0.34 0.28 0.24 0.25 0.27 0.31 0.28 0.26 0.28 0.31 0.28 0.26 0.26 0.27 0.28 0.32 0.35 0.36 0.38 0.36
0.33 0.29 0.25 0.24 0.23 0.22 0.21 0.21 0.22 0.20 0.20 0.20 0.19 0.19 0.18 0.19 0.23 0.30 0.34 0.32 0.33 0.35 0.36 0.37 0.31 0.24 0.22 0.21 0.23 0.24 0.24 0.23 0.23 0.23 0.21 0.22 0.24 0.23 0.21 0.25 0.30 0.34 0.30 0.29
0.32 0.29 0.26 0.27 0.26 0.25 0.21 0.18 0.19 0.17 0.15 0.13 0.13 0.15 0.16 0.19 0.24 0.29 0.29 0.28 0.28 0.31 0.33 0.31 0.26 0.23 0.22 0.22 0.22 0.19 0.19 0.21 0.21 0.19 0.18 0.18 0.19 0.20 0.19 0.23 0.27 0.31 0.31 0.30
0.31 0.29 0.23 0.21 0.20 0.20 0.19 0.17 0.16 0.14 0.13 0.12 0.13 0.15 0.16 0.20 0.21 0.23 0.24 0.27 0.31 0.34 0.32 0.26 0.23 0.22 0.22 0.21 0.21 0.20 0.20 0.21 0.20 0.18 0.17 0.17 0.17 0.19 0.19 0.22 0.24 0.28 0.31 0.34
0.26 0.27 0.24 0.19 0.17 0.17 0.18 0.15 0.13 0.13 0.13 0.12 0.13 0.15 0.18 0.19 0.18 0.20 0.24 0.28 0.30 0.27 0.24 0.23 0.21 0.20 0.19 0.19 0.20 0.20 0.20 0.19 0.19 0.20 0.20 0.19 0.20 0.19 0.17 0.16 0.20 0.23 0.27 0.28
0.26 0.26 0.23 0.19 0.19 0.19 0.18 0.16 0.15 0.14 0.14 0.14 0.16 0.18 0.20 0.19 0.19 0.20 0.24 0.26 0.24 0.21 0.19 0.18 0.17 0.18 0.18 0.18 0.18 0.16 0.16 0.17 0.17 0.17 0.17 0.17 0.18 0.17 0.16 0.16 0.18 0.19 0.20 0.22
0.28 0.28 0.22 0.19 0.22 0.23 0.20 0.18 0.16 0.14 0.14 0.14 0.14 0.16 0.19 0.19 0.20 0.20 0.19 0.21 0.21 0.20 0.21 0.19 0.16 0.17 0.17 0.16 0.15 0.14 0.14 0.13 0.12 0.12 0.12 0.12 0.14 0.15 0.14 0.16 0.19 0.19 0.18 0.20
0.32 0.27 0.22 0.20 0.22 0.25 0.22 0.18 0.16 0.15 0.15 0.15 0.15 0.16 0.18 0.19 0.20 0.21 0.20 0.19 0.20 0.19 0.19 0.19 0.19 0.18 0.15 0.13 0.14 0.14 0.13 0.12 0.13 0.13 0.10 0.10 0.13 0.15 0.15 0.15 0.16 0.17 0.18 0.19
0.35 0.30 0.26 0.21 0.22 0.25 0.27 0.24 0.18 0.17 0.18 0.20 0.19 0.18 0.20 0.22 0.21 0.18 0.16 0.18 0.19 0.18 0.15 0.13 0.16 0.14 0.12 0.10 0.10 0.12 0.12 0.12 0.11 0.11 0.11 0.11 0.13 0.15 0.14 0.13 0.12 0.13 0.14 0.15
0.43 0.37 0.30 0.28 0.31 0.33 0.31 0.28 0.25 0.24 0.24 0.26 0.23 0.22 0.23 0.23 0.22 0.18 0.17 0.19 0.20 0.18 0.14 0.12 0.12 0.12 0.11 0.10 0.10 0.11 0.12 0.12 0.12 0.12 0.12 0.13 0.14 0.14 0.13 0.12 0.12 0.13 0.15 0.15
0.51 0.47 0.40 0.35 0.33 0.32 0.30 0.31 0.31 0.29 0.30 0.32 0.30 0.28 0.27 0.22 0.18 0.16 0.17 0.19 0.18 0.17 0.13 0.11 0.12 0.13 0.12 0.11 0.12 0.12 0.12 0.11 0.11 0.12 0.13 0.13 0.11 0.10 0.10 0.11 0.13 0.13 0.14 0.14
0.59 0.54 0.50 0.41 0.33 0.30 0.32 0.36 0.35 0.31 0.29 0.31 0.31 0.28 0.23 0.21 0.19 0.17 0.16 0.18 0.17 0.15 0.13 0.12 0.13 0.14 0.13 0.11 0.13 0.14 0.14 0.13 0.12 0.13 0.12 0.11 0.11 0.12 0.11 0.11 0.13 0.14 0.14 0.14